185P/Petriew (2007)

Japanese version
Home page
Total 5,708 html files since Dec. 4, 1995
Updated on September 20, 2007

---------------------------------------------------------------------

* Profile

Designation 185P/2007 A3
Recovery Date January 11, 2007
Magnitude 16.1 mag
Recoverer F. Fratev (E. Mihaylova), A. Kirchev (Sofia, Bulgaria)

* Pictures

* Orbital Elements

                    Epoch = 2007 Mar.  1.0 TT
     T = 2007 Feb. 24.5806 TT         Peri. = 181.9215
     e = 0.698129                     Node  = 214.1025  2000.0
     q = 0.937602 AU                  Incl. =  13.9747
       a =  3.105970 AU    n = 0.1800563    P =   5.47 years

* Finding Charts

* Magnitudes Graph

        m1 = 11.3 + 5 log d + 30.0 log r(t - 10)

---------------------------------------------------------------------

The orbital elements are calculated by Dr. Brian G. Marsden and printed on IAUC 8795.
The charts are made with StellaNavigator Ver.2.0 for Windows (AstroArts / ASCII).
The magnitudes graphs are made with Comet for Windows.

---------------------------------------------------------------------

Copyright(C) 1995-2007 Seiichi Yoshida (comet@aerith.net). All rights reserved.